Regional Weather Roundup
Issued by NWS Albany, NY

Home | Current Version | Previous Version | Text Only | Print | Product List | Glossary On
Versions: 1 2 3 4 5 6 7 8 9 10 11 12 13 14 15 16 17 18 19 20 21 22 23 24 25 26 27 28 29 30 31 32 33 34 35 36 37 38 39 40 41 42 43 44 45 46 47 48 49 50
813
ASUS41 KALY 041010
RWRALY

NEW YORK STATE HOURLY WEATHER ROUNDUP
NATIONAL WEATHER SERVICE ALBANY NY
600 AM EDT WED MAY 04 2016

NOTE: "FAIR" INDICATES FEW OR NO CLOUDS BELOW 12,000 FEET WITH NO
SIGNIFICANT WEATHER AND/OR NO OBSTRUCTIONS TO VISIBILITY.

NYZ032-033-038>043-046>054-057>066-NYZ062>081-082-084-041100-
EAST


CITY           SKY/WX    TMP DP  RH WIND       PRES   REMARKS
ALBANY         CLOUDY    49  47  93 SE3       29.80S
GLENS FALLS    CLOUDY    46  43  89 N3        29.81S FOG
POUGHKEEPSIE   LGT RAIN  51  47  86 SE7       29.81R
NEWBURGH       LGT RAIN  48  48 100 SE7       29.81R FOG
MONTGOMERY     LGT RAIN  50  49  96 CALM      29.79S
WHITE PLAINS   CLOUDY    48  46  93 CALM      29.80S
ISLIP          CLOUDY    48  45  89 NE7       29.81
NEW YORK CITY  CLOUDY    51  48  89 NE9       29.80S
CENTRAL PARK   CLOUDY    50  44  80 NE9       29.82S
$$

NYZ005>009-017-018-044>046-055-056-041100-
CENTRAL


CITY           SKY/WX    TMP DP  RH WIND       PRES   REMARKS
FULTON         CLOUDY    48  44  86 CALM      29.75S
SYRACUSE       MOCLDY    45  43  93 E5        29.74F
ROME           CLOUDY    47  47 100 E5        29.78R
ELMIRA         FOG       43  41  93 CALM      29.74F VSB 1/2
BINGHAMTON     FOG       45  45 100 CALM      29.74S VSB 1/2
MONTICELLO     CLOUDY    46  46 100 SE6       29.79S
$$

NYZ026>034-041>043-087-041100-
NORTH


CITY           SKY/WX    TMP DP  RH WIND       PRES   REMARKS
WATERTOWN      CLOUDY    48  44  86 N3        29.75S
FORT DRUM      NOT AVBL
MASSENA        CLOUDY    43  38  82 E7        29.80S
SARANAC LAKE   CLOUDY    39  37  92 N3        29.76R
PLATTSBURGH    CLOUDY    38  36  92 CALM      29.81
$$

NYZ001>004-010>016-019>021-085-041100-
WEST


CITY           SKY/WX    TMP DP  RH WIND       PRES   REMARKS
BUFFALO        CLEAR     43  38  82 CALM      29.73F
DUNKIRK        CLEAR     34  33  96 CALM      29.73F
JAMESTOWN      CLOUDY    37  36  93 CALM      29.71F VSB 1/4
WELLSVILLE     CLOUDY    43  42  97 CALM      29.74R FOG
ROCHESTER      MOCLDY    40  38  93 CALM      29.74S
PENN YAN       CLEAR     45  42  89 W3        29.73F
$$

             KEY
       WCI = WIND CHILL INDEX
       VSB = VISIBILITY
       HX  = HEAT INDEX
$$




USA.gov is the U.S. government's official web portal to all federal, state and local government web resources and services.